Weather History for Kabul, Afghanistan

Change the Weather History Date:

Tuesday, November 20, 2012

  Actual Average Record
Temperature  
Mean Temperature 46 °F -  
Max Temperature 59 °F 51 °F - ()
Min Temperature 32 °F 26 °F - ()
Degree Days  
Heating Degree Days 20    
Moisture  
Dew Point 12 °F    
Average Humidity 30    
Maximum Humidity 56    
Minimum Humidity 13    
Precipitation  
Precipitation 0.00 in 0.03 in - ()
Sea Level Pressure  
Sea Level Pressure 30.23 in    
Wind  
Wind Speed 3 mph ()    
Max Wind Speed 6 mph    
Max Gust Speed -    
Visibility 3.3 miles    
Events      
T = Trace of Precipitation, MM = Missing Value Source: Averaged Metar Reports

Daily Weather History Graph

Daily Weather History Graph

Search for Another Location

Airport:

Trip Planner

Search our weather history database for the weather conditions in past years. The results will help you decide how hot, cold, wet, or windy it might be!

Date:

Astronomy

Nov. 20, 2012 Rise Set
Actual Time 6:31 AM AFT 4:45 PM AFT
Civil Twilight 6:04 AM AFT 5:12 PM AFT
Nautical Twilight 5:33 AM AFT 5:43 PM AFT
Astronomical Twilight 5:03 AM AFT 6:13 PM AFT
Moon 11:59 AM AFT (11/20) 11:40 PM AFT (11/20)
Length of Visible Light 11h 08m
Length of Day
10h 14m
Waxing Crescent, 47% of the Moon is Illuminated
Nov 20
Waxing Crescent
Nov 20
First Quarter
Nov 28
Full
Dec 6
Last Quarter
Dec 13
New

Hourly Weather History & Observations

Time (AFT) Temp. Windchill Dew Point Humidity Pressure Visibility Wind Dir Wind Speed Gust Speed Precip Events Conditions
12:20 AM 35.6 °F 31.7 °F 14.0 °F 41% 30.24 in 3.7 mi NW 4.6 mph - N/A   Unknown
1:20 AM 33.8 °F - 14.0 °F 44% 30.24 in 3.7 mi Variable 2.3 mph - N/A   Unknown
2:20 AM 33.8 °F 30.8 °F 19.4 °F 56% 30.24 in 4.3 mi North 3.5 mph - N/A   Unknown
3:20 AM 32.0 °F 26.4 °F 10.4 °F 41% 30.24 in - North 5.8 mph - N/A   Clear
4:20 AM 33.8 °F - 12.2 °F 41% 30.24 in - Variable 2.3 mph - N/A   Clear
5:20 AM 33.8 °F - 12.2 °F 41% 30.24 in - Variable 2.3 mph - N/A   Clear
6:20 AM 32.0 °F 27.5 °F 12.2 °F 44% 30.27 in - NW 4.6 mph - N/A   Clear
7:20 AM 37.4 °F 33.8 °F 12.2 °F 36% 30.27 in 5.0 mi North 4.6 mph - N/A   Unknown
8:20 AM 41.0 °F 37.1 °F 15.8 °F 36% 30.30 in 5.0 mi NW 5.8 mph - N/A   Unknown
9:20 AM 48.2 °F - 15.8 °F 27% 30.30 in 5.0 mi Variable 3.5 mph - N/A   Unknown
9:53 AM 51.8 °F - 17.6 °F 26% 30.30 in 2.5 mi WSW 3.5 mph - N/A   Haze
10:20 AM 51.8 °F - 15.8 °F 24% 30.30 in 2.5 mi SSE 3.5 mph - N/A   Haze
11:20 AM 53.6 °F - 12.2 °F 19% 30.27 in 3.7 mi SSE 4.6 mph - N/A   Haze
12:20 PM 55.4 °F - 10.4 °F 17% 30.24 in 5.0 mi SW 5.8 mph - N/A   Unknown
1:20 PM 59.0 °F - 8.6 °F 14% 30.21 in 5.0 mi SW 5.8 mph - N/A   Unknown
2:20 PM 57.2 °F - 6.8 °F 13% 30.18 in - SE 4.6 mph - N/A   Clear
3:20 PM 55.4 °F - 5.0 °F 13% 30.18 in - SSW 4.6 mph - N/A   Clear
4:20 PM 53.6 °F - 6.8 °F 15% 30.18 in 5.6 mi SSW 3.5 mph - N/A   Unknown
5:10 PM 48.2 °F - 6.8 °F 19% 30.18 in 3.1 mi NNW 2.3 mph - N/A   Smoke
5:20 PM 50.0 °F - 6.8 °F 17% 30.18 in 3.1 mi ENE 2.3 mph - N/A   Smoke
6:05 PM 46.4 °F - 10.4 °F 23% 30.18 in 1.9 mi ENE 2.3 mph - N/A   Smoke
6:20 PM 46.4 °F - 8.6 °F 22% 30.18 in 1.6 mi North 2.3 mph - N/A   Smoke
7:20 PM 42.8 °F - 12.2 °F 29% 30.18 in 1.2 mi South 2.3 mph - N/A   Smoke
8:20 PM 42.8 °F 41.1 °F 14.0 °F 31% 30.18 in 1.2 mi ENE 3.5 mph - N/A   Smoke
9:20 PM 41.0 °F 39.0 °F 21.2 °F 45% 30.18 in 1.2 mi SE 3.5 mph - N/A   Haze
10:20 PM 42.8 °F 40.1 °F 17.6 °F 36% 30.21 in 1.9 mi NE 4.6 mph - N/A   Haze
11:20 PM 41.0 °F - 14.0 °F 33% 30.21 in 2.5 mi NNW 2.3 mph - N/A   Haze